DLH2WC EDDM-EDDB

Flight info

Callsign DLH2WC
Flight time 0h 46m
Altitude 29000
Route AKINI1S AKINI Y104 MAMOR L132 RUDNO T203 TIVDA DCT ETVIS DCT NAVEK DCT GAVLI/N0443F300 T203 ATGUP ATGUP1R
Aircraft A320/M-SDE3FGHIRWY/LB1

Departure

Time 2026-05-06 15:57
Airport Munich Airport (EDDM)

Arrival

Time 2026-05-06 16:44
Airport Berlin Brandenburg Airport (EDDB)
Time Latitude Longitude Altitude Speed Heading
2026-05-06 15:29 48.35575 11.79736 1473 ft 0 kts 83°
2026-05-06 15:46 48.35574 11.79725 1472 ft 2 kts 84°
2026-05-06 15:47 48.35572 11.79703 1472 ft 2 kts 83°
2026-05-06 15:47 48.35571 11.79681 1473 ft 2 kts 84°
2026-05-06 15:47 48.35569 11.79659 1473 ft 1 kts 83°
2026-05-06 15:47 48.35567 11.79645 1473 ft 2 kts 76°
2026-05-06 15:48 48.35562 11.79624 1473 ft 2 kts 60°
2026-05-06 15:48 48.35553 11.79606 1473 ft 2 kts 45°
2026-05-06 15:48 48.35542 11.79592 1473 ft 2 kts 30°
2026-05-06 15:48 48.35527 11.79583 1473 ft 2 kts 14°
2026-05-06 15:49 48.35513 11.79580 1473 ft 2 kts 359°
2026-05-06 15:49 48.35505 11.79580 1473 ft 1 kts 351°
2026-05-06 15:49 48.35502 11.79581 1473 ft 0 kts 353°
2026-05-06 15:51 48.35504 11.79580 1473 ft 1 kts 353°
2026-05-06 15:51 48.35532 11.79575 1473 ft 6 kts 352°
2026-05-06 15:51 48.35591 11.79565 1473 ft 10 kts 354°
2026-05-06 15:52 48.35675 11.79551 1472 ft 13 kts 353°
2026-05-06 15:52 48.35773 11.79534 1472 ft 14 kts 354°
2026-05-06 15:52 48.35876 11.79516 1471 ft 15 kts 353°
2026-05-06 15:52 48.35990 11.79496 1470 ft 16 kts 353°
2026-05-06 15:53 48.36111 11.79475 1469 ft 17 kts 353°
2026-05-06 15:53 48.36216 11.79520 1467 ft 17 kts 71°
2026-05-06 15:53 48.36232 11.79706 1466 ft 18 kts 83°
2026-05-06 15:53 48.36247 11.79903 1465 ft 19 kts 83°
2026-05-06 15:54 48.36261 11.80080 1464 ft 16 kts 83°
2026-05-06 15:54 48.36274 11.80245 1463 ft 15 kts 84°
2026-05-06 15:54 48.36286 11.80409 1462 ft 16 kts 83°
2026-05-06 15:54 48.36299 11.80584 1461 ft 17 kts 84°
2026-05-06 15:55 48.36314 11.80770 1460 ft 18 kts 83°
2026-05-06 15:55 48.36328 11.80963 1459 ft 19 kts 84°
2026-05-06 15:55 48.36345 11.81161 1458 ft 17 kts 72°
2026-05-06 15:55 48.36429 11.81149 1457 ft 16 kts 294°
2026-05-06 15:56 48.36476 11.80988 1458 ft 17 kts 294°
2026-05-06 15:56 48.36526 11.80821 1458 ft 17 kts 299°
2026-05-06 15:56 48.36577 11.80673 1459 ft 13 kts 264°
2026-05-06 15:56 48.36557 11.80399 1460 ft 55 kts 263°
2026-05-06 15:57 48.36484 11.79465 1466 ft 120 kts 263°
2026-05-06 15:57 48.36365 11.77953 1499 ft 168 kts 264°
2026-05-06 15:57 48.36214 11.76199 2043 ft 171 kts 265°
2026-05-06 15:57 48.36083 11.74444 2719 ft 173 kts 266°
2026-05-06 15:58 48.35961 11.72654 3377 ft 176 kts 266°
2026-05-06 15:58 48.35820 11.70767 3894 ft 187 kts 266°
2026-05-06 15:58 48.35910 11.68842 4536 ft 188 kts 288°
2026-05-06 15:58 48.36492 11.67116 5203 ft 189 kts 308°
2026-05-06 15:59 48.37492 11.65833 5849 ft 193 kts 330°
2026-05-06 15:59 48.38744 11.65175 6442 ft 199 kts 346°
2026-05-06 15:59 48.40156 11.64763 6855 ft 215 kts 347°
2026-05-06 15:59 48.41695 11.64303 7188 ft 236 kts 347°
2026-05-06 16:00 48.43391 11.64006 7591 ft 257 kts
2026-05-06 16:00 48.45105 11.64988 7980 ft 277 kts 32°
2026-05-06 16:00 48.46712 11.66725 8517 ft 290 kts 37°
2026-05-06 16:00 48.48337 11.68570 9005 ft 305 kts 37°
2026-05-06 16:01 48.50100 11.70493 9397 ft 323 kts 36°
2026-05-06 16:01 48.51992 11.72470 9923 ft 334 kts 35°
2026-05-06 16:01 48.53934 11.74446 10450 ft 345 kts 34°
2026-05-06 16:01 48.55955 11.76469 11005 ft 354 kts 34°
2026-05-06 16:02 48.58024 11.78522 11680 ft 358 kts 33°
2026-05-06 16:02 48.60091 11.80565 12338 ft 362 kts 33°
2026-05-06 16:02 48.62213 11.82660 12958 ft 367 kts 33°
2026-05-06 16:02 48.64340 11.84756 13574 ft 371 kts 33°
2026-05-06 16:03 48.66512 11.86896 14203 ft 374 kts 33°
2026-05-06 16:03 48.68705 11.89059 14798 ft 378 kts 33°
2026-05-06 16:03 48.70012 11.90349 15133 ft 381 kts 33°
2026-05-06 16:03 48.71570 11.91889 15535 ft 384 kts 33°
2026-05-06 16:04 48.73832 11.94127 16100 ft 388 kts 33°
2026-05-06 16:04 48.76085 11.96358 16618 ft 393 kts 32°
2026-05-06 16:04 48.78390 11.98643 17141 ft 397 kts 32°
2026-05-06 16:04 48.80671 12.00905 17672 ft 400 kts 32°
2026-05-06 16:05 48.83022 12.03239 18207 ft 403 kts 32°
2026-05-06 16:05 48.85344 12.05547 18626 ft 405 kts 32°
2026-05-06 16:05 48.87704 12.07895 18742 ft 406 kts 32°
2026-05-06 16:05 48.90075 12.10259 18792 ft 410 kts 32°
2026-05-06 16:06 48.92458 12.12635 19256 ft 413 kts 33°
2026-05-06 16:06 48.94857 12.15031 19887 ft 412 kts 33°
2026-05-06 16:06 48.97264 12.17438 20404 ft 414 kts 33°
2026-05-06 16:06 48.99673 12.19850 20854 ft 418 kts 33°
2026-05-06 16:07 49.02084 12.22267 21318 ft 421 kts 33°
2026-05-06 16:07 49.04555 12.24747 21769 ft 425 kts 33°
2026-05-06 16:07 49.07024 12.27228 22214 ft 428 kts 33°
2026-05-06 16:07 49.09480 12.29700 22660 ft 431 kts 33°
2026-05-06 16:08 49.12006 12.32245 23089 ft 434 kts 33°
2026-05-06 16:08 49.14538 12.34796 23490 ft 437 kts 33°
2026-05-06 16:08 49.17061 12.37341 23872 ft 441 kts 33°
2026-05-06 16:08 49.19612 12.39924 24254 ft 444 kts 33°
2026-05-06 16:09 49.22207 12.42553 24652 ft 447 kts 33°
2026-05-06 16:09 49.24779 12.45158 24965 ft 451 kts 33°
2026-05-06 16:09 49.27419 12.47839 25293 ft 455 kts 33°
2026-05-06 16:09 49.30031 12.50496 25633 ft 458 kts 33°
2026-05-06 16:10 49.32692 12.53206 25978 ft 460 kts 33°
2026-05-06 16:10 49.35287 12.56031 26329 ft 462 kts 36°
2026-05-06 16:10 49.37877 12.58993 26708 ft 463 kts 37°
2026-05-06 16:10 49.40434 12.61950 27164 ft 463 kts 36°
2026-05-06 16:11 49.43067 12.64743 27544 ft 464 kts 32°
2026-05-06 16:11 49.45836 12.67259 27883 ft 465 kts 28°
2026-05-06 16:11 49.48741 12.69519 28207 ft 466 kts 25°
2026-05-06 16:11 49.51645 12.71640 28538 ft 468 kts 24°
2026-05-06 16:12 49.54580 12.73761 28739 ft 470 kts 24°
2026-05-06 16:12 49.57554 12.75929 28749 ft 470 kts 24°
2026-05-06 16:12 49.63452 12.80090 28746 ft 470 kts 19°
2026-05-06 16:13 49.69708 12.82803 28748 ft 468 kts
2026-05-06 16:13 49.76121 12.84304 28745 ft 468 kts
2026-05-06 16:14 49.82558 12.85716 28753 ft 468 kts
2026-05-06 16:14 49.88969 12.87170 28761 ft 467 kts
2026-05-06 16:15 49.95378 12.88651 28766 ft 468 kts
2026-05-06 16:15 50.01799 12.90142 28790 ft 467 kts
2026-05-06 16:16 50.08242 12.91644 28796 ft 467 kts
2026-05-06 16:16 50.14639 12.93138 28801 ft 467 kts
2026-05-06 16:17 50.21068 12.94643 28796 ft 467 kts
2026-05-06 16:17 50.27427 12.96474 28778 ft 468 kts 13°
2026-05-06 16:18 50.33499 13.00085 28791 ft 470 kts 24°
2026-05-06 16:18 50.39302 13.04725 28777 ft 470 kts 26°
2026-05-06 16:19 50.45067 13.09382 28772 ft 469 kts 26°
2026-05-06 16:19 50.50876 13.14014 28769 ft 469 kts 26°
2026-05-06 16:20 50.56663 13.18644 28757 ft 469 kts 26°
2026-05-06 16:20 50.62446 13.23295 28758 ft 468 kts 26°
2026-05-06 16:21 50.68227 13.27957 28764 ft 469 kts 26°
2026-05-06 16:21 50.74044 13.32658 28752 ft 469 kts 26°
2026-05-06 16:22 50.79851 13.37365 28743 ft 472 kts 26°
2026-05-06 16:22 50.85670 13.42096 28746 ft 473 kts 26°
2026-05-06 16:23 50.91538 13.46717 28748 ft 473 kts 21°
2026-05-06 16:23 50.97789 13.49777 28593 ft 472 kts
2026-05-06 16:24 51.01022 13.50695 27896 ft 472 kts
2026-05-06 16:24 51.04252 13.51488 27177 ft 472 kts
2026-05-06 16:24 51.07453 13.52282 26503 ft 470 kts
2026-05-06 16:24 51.10678 13.53121 25806 ft 469 kts
2026-05-06 16:25 51.13879 13.53979 25192 ft 463 kts
2026-05-06 16:25 51.17024 13.54833 24724 ft 456 kts
2026-05-06 16:25 51.20083 13.55667 24271 ft 448 kts
2026-05-06 16:25 51.23127 13.56496 23802 ft 441 kts
2026-05-06 16:26 51.26115 13.57307 23339 ft 435 kts
2026-05-06 16:26 51.29084 13.58114 22864 ft 430 kts
2026-05-06 16:26 51.32004 13.58909 22385 ft 425 kts
2026-05-06 16:26 51.34888 13.59694 21906 ft 421 kts
2026-05-06 16:27 51.37749 13.60475 21441 ft 417 kts
2026-05-06 16:27 51.40593 13.61253 20948 ft 413 kts
2026-05-06 16:27 51.43388 13.62017 20478 ft 410 kts
2026-05-06 16:27 51.46176 13.62778 20014 ft 406 kts
2026-05-06 16:28 51.48946 13.63541 19548 ft 403 kts
2026-05-06 16:28 51.51714 13.64303 19076 ft 400 kts
2026-05-06 16:28 51.54398 13.65044 18610 ft 397 kts
2026-05-06 16:28 51.57136 13.65846 18152 ft 395 kts 10°
2026-05-06 16:29 51.59790 13.66779 17687 ft 393 kts 11°
2026-05-06 16:29 51.62423 13.67746 17215 ft 390 kts 11°
2026-05-06 16:29 51.65064 13.68723 16738 ft 388 kts 11°
2026-05-06 16:29 51.67681 13.69691 16273 ft 385 kts 11°
2026-05-06 16:30 51.70270 13.70647 15809 ft 383 kts 11°
2026-05-06 16:30 51.71988 13.71280 15513 ft 382 kts 11°
2026-05-06 16:30 51.75427 13.72547 14886 ft 379 kts 11°
2026-05-06 16:30 51.77976 13.73485 14424 ft 377 kts 11°
2026-05-06 16:31 51.80535 13.74426 13952 ft 375 kts 11°
2026-05-06 16:31 51.83060 13.75356 13475 ft 372 kts 11°
2026-05-06 16:31 51.85556 13.76277 13024 ft 370 kts 11°
2026-05-06 16:31 51.88057 13.77204 12561 ft 367 kts 11°
2026-05-06 16:32 51.90516 13.78068 12082 ft 364 kts
2026-05-06 16:32 51.93003 13.78078 11622 ft 354 kts 347°
2026-05-06 16:32 51.95300 13.76960 11599 ft 345 kts 335°
2026-05-06 16:32 51.97522 13.75435 11616 ft 345 kts 333°
2026-05-06 16:33 51.99708 13.73887 11598 ft 345 kts 333°
2026-05-06 16:33 52.01902 13.72352 11236 ft 346 kts 334°
2026-05-06 16:33 52.04063 13.70676 10757 ft 342 kts 327°
2026-05-06 16:34 52.07710 13.66183 10229 ft 318 kts 315°
2026-05-06 16:34 52.09214 13.63698 10053 ft 302 kts 301°
2026-05-06 16:34 52.10043 13.60709 9917 ft 284 kts 280°
2026-05-06 16:34 52.10319 13.57620 9805 ft 270 kts 275°
2026-05-06 16:35 52.10525 13.54571 9436 ft 269 kts 275°
2026-05-06 16:35 52.10728 13.51581 9072 ft 268 kts 275°
2026-05-06 16:35 52.10941 13.48583 8744 ft 266 kts 276°
2026-05-06 16:35 52.11156 13.45632 8393 ft 267 kts 276°
2026-05-06 16:36 52.11379 13.42654 7923 ft 268 kts 276°
2026-05-06 16:36 52.11605 13.39616 7478 ft 266 kts 276°
2026-05-06 16:36 52.11826 13.36689 7026 ft 261 kts 278°
2026-05-06 16:36 52.12379 13.33920 6565 ft 262 kts 298°
2026-05-06 16:37 52.13424 13.31489 6121 ft 262 kts 305°
2026-05-06 16:37 52.14516 13.29170 5688 ft 262 kts 306°
2026-05-06 16:37 52.15624 13.26818 5708 ft 262 kts 306°
2026-05-06 16:37 52.16740 13.24429 5560 ft 264 kts 306°
2026-05-06 16:38 52.17824 13.22089 5202 ft 258 kts 306°
2026-05-06 16:38 52.18958 13.19869 4815 ft 251 kts 320°
2026-05-06 16:38 52.20417 13.18459 4495 ft 240 kts 338°
2026-05-06 16:38 52.21936 13.17496 4211 ft 230 kts 340°
2026-05-06 16:39 52.23416 13.16588 3939 ft 228 kts 340°
2026-05-06 16:39 52.24900 13.15728 3679 ft 224 kts 349°
2026-05-06 16:39 52.26408 13.15947 3457 ft 221 kts 28°
2026-05-06 16:39 52.27493 13.17640 3259 ft 221 kts 58°
2026-05-06 16:40 52.28172 13.19886 3058 ft 217 kts 65°
2026-05-06 16:40 52.28729 13.22107 2968 ft 208 kts 66°
2026-05-06 16:40 52.29251 13.24320 2953 ft 210 kts 67°
2026-05-06 16:40 52.29770 13.26551 2758 ft 208 kts 67°
2026-05-06 16:41 52.30282 13.28750 2478 ft 207 kts 67°
2026-05-06 16:41 52.30791 13.30923 2195 ft 204 kts 67°
2026-05-06 16:41 52.31276 13.32994 1919 ft 188 kts 67°
2026-05-06 16:41 52.31722 13.34896 1750 ft 169 kts 67°
2026-05-06 16:42 52.32127 13.36623 1493 ft 160 kts 66°
2026-05-06 16:42 52.32513 13.38258 1275 ft 148 kts 66°
2026-05-06 16:42 52.32871 13.39765 1051 ft 137 kts 65°
2026-05-06 16:42 52.33207 13.41169 867 ft 131 kts 66°
2026-05-06 16:43 52.33525 13.42552 722 ft 131 kts 67°
2026-05-06 16:43 52.33858 13.43952 549 ft 130 kts 66°
2026-05-06 16:43 52.34186 13.45322 380 ft 130 kts 66°
2026-05-06 16:43 52.34510 13.46686 219 ft 129 kts 67°
2026-05-06 16:44 52.34820 13.48001 152 ft 106 kts 67°
2026-05-06 16:44 52.35026 13.48866 151 ft 60 kts 68°
2026-05-06 16:44 52.35176 13.49283 150 ft 27 kts 43°
2026-05-06 16:44 52.35280 13.49425 150 ft 10 kts 37°
2026-05-06 16:45 52.35309 13.49462 150 ft 4 kts 38°
2026-05-06 16:45 52.35322 13.49479 150 ft 0 kts 39°
2026-05-06 16:48 52.35324 13.49482 150 ft 1 kts 39°
2026-05-06 16:48 52.35342 13.49505 150 ft 5 kts 38°
2026-05-06 16:48 52.35394 13.49574 150 ft 13 kts 38°
2026-05-06 16:48 52.35464 13.49721 149 ft 19 kts 67°
2026-05-06 16:49 52.35515 13.49933 149 ft 20 kts 69°
2026-05-06 16:49 52.35567 13.50155 150 ft 21 kts 68°
2026-05-06 16:49 52.35621 13.50385 150 ft 22 kts 68°
2026-05-06 16:49 52.35677 13.50620 151 ft 22 kts 68°
2026-05-06 16:50 52.35739 13.50816 151 ft 17 kts 25°
2026-05-06 16:50 52.35846 13.50780 151 ft 16 kts 338°
2026-05-06 16:50 52.35956 13.50709 151 ft 17 kts 339°
2026-05-06 16:50 52.36032 13.50662 151 ft 17 kts 338°
2026-05-06 16:51 52.36187 13.50563 151 ft 18 kts 339°
2026-05-06 16:51 52.36306 13.50487 151 ft 18 kts 338°
2026-05-06 16:51 52.36394 13.50438 151 ft 7 kts 14°
2026-05-06 16:51 52.36420 13.50516 152 ft 8 kts 68°
2026-05-06 16:52 52.36433 13.50568 152 ft 0 kts 69°